KD5NVR-1 Weather Reports


time (UTC)temp
F
wind
direction
speed
knots
gust
knots
rain 1hr
in
rain 24hr
in
rain mn
in
humidity
%
barometer
mb
20260507023018 61 57 2.6 5.2 0.00 0.70 0.70 79 1015.9
20260507022038 62 40 3.5 7.8 0.00 0.70 0.70 77 1015.8
20260507021038 62 308 7.0 10.4 0.00 0.70 0.70 79 1015.7
20260507020039 62 50 2.6 4.3 0.00 0.70 0.70 82 1015.5
20260507015018 62 69 2.6 6.1 0.00 0.70 0.70 81 1015.4
20260507014019 62 49 3.5 7.0 0.00 0.70 0.70 80 1015.3
20260507013016 62 62 1.7 4.3 0.00 0.70 0.70 80 1014.9
20260507012016 63 82 2.6 6.1 0.00 0.70 0.70 79 1014.6
20260507011016 63 73 3.5 7.8 0.00 0.71 0.70 79 1014.5
20260507010036 64 63 4.3 7.0 0.00 0.71 0.70 77 1014.5
20260507005016 65 57 2.6 7.0 0.00 0.71 0.70 76 1014.4
20260507004036 66 77 1.7 4.3 0.00 0.71 0.70 74 1014.3
20260507003017 66 83 1.7 5.2 0.00 0.71 0.70 73 1014.1
20260507002037 67 96 2.6 5.2 0.00 0.71 0.70 71 1014.2
20260507001017 67 102 1.7 4.3 0.00 0.71 0.70 69 1014.1
20260507000016 67 87 1.7 4.3 0.00 0.71 0.70 71 1014.1
20260506235017 67 80 3.5 5.2 0.00 0.71 0.70 69 1014.0
20260506234037 67 82 3.5 6.1 0.00 0.71 0.70 69 1014.0
20260506233017 68 76 1.7 5.2 0.00 0.71 0.70 67 1013.8
20260506232017 68 25 2.6 5.2 0.00 0.71 0.70 66 1013.7
20260506231018 68 22 4.3 7.0 0.00 0.71 0.70 66 1013.6
20260506230018 67 9 3.5 4.3 0.00 0.71 0.70 67 1013.6
20260506225018 66 11 3.5 5.2 0.00 0.71 0.70 68 1013.7
20260506224018 65 29 2.6 7.8 0.00 0.71 0.70 70 1013.7
20260506223018 65 3 3.5 7.0 0.00 0.71 0.70 70 1013.6
20260506222159 65 8 5.2 7.8 0.00 0.71 0.70 69 1013.6
20260506221019 65 358 4.3 7.0 0.00 0.71 0.70 70 1013.6
20260506220016 65 353 3.5 6.1 0.00 0.71 0.70 69 1013.6
20260506215016 64 6 4.3 7.8 0.00 0.71 0.70 72 1013.4
20260506214036 64 11 3.5 6.1 0.00 0.71 0.70 72 1013.6
20260506213016 63 325 7.0 10.4 0.00 0.71 0.70 73 1013.7
20260506212016 63 318 7.0 10.4 0.00 0.71 0.70 73 1014.0
20260506211017 63 317 7.0 9.6 0.00 0.71 0.70 73 1014.0
20260506210017 62 335 3.5 9.6 0.00 0.71 0.70 74 1014.0
20260506205017 61 14 7.8 12.2 0.00 0.71 0.70 75 1014.2
20260506204017 61 334 5.2 9.6 0.00 0.71 0.70 76 1014.2
20260506203057 61 0 8.7 13.0 0.00 0.71 0.70 76 1014.4
20260506202017 60 10 10.4 15.6 0.00 0.71 0.70 77 1014.4
20260506201038 60 9 10.4 14.8 0.00 0.71 0.70 78 1014.6
20260506200017 59 12 11.3 14.8 0.00 0.71 0.70 78 1014.6
20260506195017 59 30 9.6 19.1 0.00 0.71 0.70 79 1014.7
20260506194038 59 7 8.7 14.8 0.00 0.71 0.70 79 1014.9
20260506193018 59 355 7.8 11.3 0.00 0.71 0.70 79 1015.0
20260506192038 58 25 7.8 14.8 0.00 0.71 0.70 80 1015.1
20260506191018 58 13 6.1 12.2 0.00 0.71 0.70 81 1015.3
20260506190019 57 19 6.1 11.3 0.00 0.71 0.70 82 1015.4
20260506185018 57 353 5.2 9.6 0.00 0.71 0.70 81 1015.4
20260506184019 56 347 5.2 7.8 0.00 0.71 0.70 82 1015.4
20260506183019 56 349 6.1 9.6 0.00 0.71 0.70 83 1015.6
20260506182016 56 353 5.2 9.6 0.00 0.71 0.70 84 1015.6
20260506181056 55 344 7.8 11.3 0.00 0.71 0.70 84 1015.7
20260506180016 55 356 7.8 12.2 0.00 0.71 0.70 86 1015.3
20260506175016 55 7 11.3 17.4 0.00 0.71 0.70 86 1015.5
20260506174016 54 4 12.2 15.6 0.00 0.71 0.70 86 1015.5
20260506173017 54 4 11.3 14.8 0.00 0.71 0.70 87 1015.6
20260506172017 54 11 11.3 14.8 0.00 0.71 0.70 88 1015.7
20260506171037 54 17 11.3 14.8 0.00 0.71 0.70 89 1015.8
20260506170017 53 13 13.0 17.4 0.00 0.71 0.70 90 1015.5
20260506165017 53 9 12.2 15.6 0.00 0.71 0.70 90 1015.3
20260506164018 53 12 15.6 20.0 0.00 0.71 0.70 90 1015.3
20260506163017 53 11 13.0 17.4 0.00 0.71 0.70 91 1015.3
20260506162017 53 30 7.8 11.3 0.00 0.71 0.70 90 1015.3
20260506161037 53 8 11.3 13.9 0.00 0.71 0.70 91 1015.0
20260506160018 53 19 10.4 13.0 0.00 0.71 0.70 91 1014.8
20260506155018 53 10 11.3 15.6 0.00 0.71 0.70 91 1014.8
20260506154018 53 10 12.2 16.5 0.00 0.71 0.70 91 1014.7
20260506153018 52 23 10.4 17.4 0.00 0.71 0.70 91 1014.7
20260506152018 52 22 8.7 12.2 0.00 0.71 0.70 92 1014.7
20260506151018 52 26 7.8 13.0 0.00 0.71 0.70 92 1014.4
20260506150021 52 30 4.3 7.8 0.05 0.71 0.70 92 1014.1
20260506145018 52 20 9.6 13.9 0.08 0.71 0.70 91 1013.4
20260506144019 52 31 5.2 9.6 0.11 0.70 0.69 92 1012.8
20260506143016 52 43 3.5 7.0 0.15 0.70 0.69 93 1013.4
20260506142036 52 23 5.2 8.7 0.17 0.70 0.69 93 1014.0
20260506141016 52 38 2.6 5.2 0.18 0.70 0.69 93 1014.2
20260506140016 53 20 10.4 13.9 0.16 0.66 0.65 92 1014.7
20260506135016 53 3 11.3 16.5 0.13 0.62 0.61 90 1015.6
20260506134017 53 21 10.4 13.9 0.10 0.60 0.59 90 1015.4
20260506133017 53 20 13.0 19.1 0.07 0.56 0.55 90 1014.5
20260506132017 53 17 13.0 19.1 0.05 0.54 0.53 89 1014.2
20260506131017 53 20 13.9 18.2 0.04 0.53 0.51 88 1013.8
20260506130017 54 15 16.5 20.9 0.01 0.50 0.49 88 1014.3
20260506125017 54 18 16.5 20.9 0.01 0.50 0.49 87 1013.5
20260506124017 54 15 15.6 21.7 0.01 0.50 0.48 87 1013.5
20260506123018 54 17 15.6 20.9 0.00 0.49 0.48 88 1013.9
20260506122038 54 19 13.0 18.2 0.00 0.49 0.48 87 1013.2
20260506121018 54 29 11.3 15.6 0.00 0.49 0.48 86 1012.9
20260506120018 54 38 9.6 17.4 0.00 0.49 0.48 86 1012.4
20260506115038 54 47 7.0 8.7 0.00 0.48 0.47 86 1012.1
20260506114038 54 48 7.0 9.6 0.00 0.48 0.47 86 1012.1
20260506113018 54 47 7.8 10.4 0.00 0.48 0.47 86 1011.9
20260506112019 55 47 7.0 9.6 0.00 0.48 0.47 86 1012.2
20260506111017 55 48 6.1 8.7 0.00 0.48 0.47 86 1012.4
20260506110017 55 47 6.1 7.8 0.00 0.48 0.47 85 1012.3
20260506105037 55 48 6.1 8.7 0.00 0.48 0.47 86 1012.0
20260506104017 55 48 6.1 7.8 0.00 0.48 0.47 86 1012.1
20260506103016 55 48 6.1 8.7 0.00 0.48 0.47 86 1011.8
20260506102018 55 47 6.1 8.7 0.00 0.48 0.47 86 1011.4
20260506101018 56 47 6.1 7.8 0.00 0.48 0.47 86 1011.3
20260506100016 56 47 6.1 8.7 0.00 0.48 0.47 87 1011.2
20260506095017 56 47 6.1 8.7 0.00 0.48 0.47 86 1011.1
20260506094018 56 48 6.1 7.8 0.00 0.48 0.47 87 1011.1
20260506093038 56 47 5.2 7.0 0.00 0.48 0.47 87 1011.2
20260506092018 56 48 5.2 7.8 0.00 0.48 0.47 87 1011.1
20260506091018 57 48 5.2 7.8 0.00 0.48 0.47 87 1010.8
20260506090018 57 47 5.2 7.8 0.00 0.48 0.47 87 1010.6
20260506085019 57 46 5.2 7.0 0.00 0.48 0.47 86 1010.7
20260506084038 58 22 10.4 14.8 0.00 0.48 0.47 84 1010.6
20260506083038 58 17 11.3 15.6 0.00 0.48 0.47 85 1010.7
20260506082018 58 37 5.2 10.4 0.02 0.48 0.47 85 1010.7
20260506081018 59 42 7.0 13.0 0.10 0.48 0.47 84 1010.6
20260506073016 61 319 12.2 36.5 0.47 0.48 0.47 83 1010.6
20260506072016 61 310 6.1 10.4 0.45 0.46 0.45 83 1010.4
20260506071036 62 320 7.0 11.3 0.38 0.39 0.38 83 1010.3
20260506062017 63 52 4.3 10.4 0.00 0.01 0.00 76 1009.9
20260506061017 64 49 6.1 10.4 0.00 0.01 0.00 75 1009.8
20260506051018 66 47 5.2 12.2 0.00 0.01 0.00 70 1009.7
20260506045018 67 46 5.2 10.4 0.00 0.01 0.01 69 1009.8
20260506044018 67 53 5.2 9.6 0.00 0.01 0.01 69 1009.8
20260506043018 68 52 5.2 9.6 0.00 0.01 0.01 70 1009.9
20260506042019 68 35 5.2 10.4 0.00 0.01 0.01 71 1009.8
20260506041056 69 35 3.5 7.8 0.00 0.01 0.01 70 1009.5
20260506040036 69 50 4.3 8.7 0.00 0.01 0.01 69 1009.2
20260506035036 70 44 5.2 10.4 0.00 0.01 0.01 69 1009.2
20260506034016 70 27 6.1 10.4 0.00 0.01 0.01 68 1009.3
20260506033016 70 29 5.2 8.7 0.00 0.01 0.01 68 1009.1
20260506032016 71 31 5.2 10.4 0.00 0.01 0.01 67 1009.2
20260506031017 71 26 5.2 10.4 0.00 0.01 0.01 67 1009.0
20260506030017 72 22 5.2 9.6 0.00 0.01 0.01 67 1008.9
20260506025017 72 33 4.3 7.8 0.00 0.01 0.01 66 1008.7
20260506024017 73 23 5.2 8.7 0.00 0.01 0.01 68 1008.3